#Datum;Uhrzeit;WR;Pac;DaySum;Status;WR;Pac;DaySum;Status;Pdc1;Udc;Temp;WR;Pac;DaySum;Status;Pdc1;Udc;Temp;WR;Pac;DaySum;Status;Pdc1;Udc;Temp;WR;Pac;DaySum;Status;Pdc1;Pdc2;Udc1;Udc2;Temp;WR;Pac;DaySum;Status;Pdc1;Pdc2;Udc1;Udc2;Temp;WR;Pac;DaySum;Status;Pdc1;Udc;Temp;WR;Pac;DaySum;Status;Pdc1;Udc;Temp;WR;Pac;DaySum;Status;Pdc1;Udc;Temp
08.03.21;23:55:00;1;731;10738;0;2;0;27111;0;0;0;0;3;0;17783;0;0;0;0;4;0;26742;0;0;0;0;5;0;0;0;0;0;0;0;0;6;0;49093;0;0;0;0;0;0;7;0;40396;0;0;0;0;8;0;39984;0;0;0;0;9;0;21720;0;0;0;0
08.03.21;23:50:00;1;1060;10677;0;2;0;27111;0;0;0;0;3;0;17783;0;0;0;0;4;0;26742;0;0;0;0;5;0;0;0;0;0;0;0;0;6;0;49093;0;0;0;0;0;0;7;0;40396;0;0;0;0;8;0;39984;0;0;0;0;9;0;21720;0;0;0;0
08.03.21;23:45:00;1;650;10592;0;2;0;27111;0;0;0;0;3;0;17783;0;0;0;0;4;0;26742;0;0;0;0;5;0;0;0;0;0;0;0;0;6;0;49093;0;0;0;0;0;0;7;0;40396;0;0;0;0;8;0;39984;0;0;0;0;9;0;21720;0;0;0;0
08.03.21;23:40:00;1;714;10538;0;2;0;27111;0;0;0;0;3;0;17783;0;0;0;0;4;0;26742;0;0;0;0;5;0;0;0;0;0;0;0;0;6;0;49093;0;0;0;0;0;0;7;0;40396;0;0;0;0;8;0;39984;0;0;0;0;9;0;21720;0;0;0;0
08.03.21;23:35:00;1;680;10478;0;2;0;27111;0;0;0;0;3;0;17783;0;0;0;0;4;0;26742;0;0;0;0;5;0;0;0;0;0;0;0;0;6;0;49093;0;0;0;0;0;0;7;0;40396;0;0;0;0;8;0;39984;0;0;0;0;9;0;21720;0;0;0;0
08.03.21;23:30:00;1;770;10423;0;2;0;27111;0;0;0;0;3;0;17783;0;0;0;0;4;0;26742;0;0;0;0;5;0;0;0;0;0;0;0;0;6;0;49093;0;0;0;0;0;0;7;0;40396;0;0;0;0;8;0;39984;0;0;0;0;9;0;21720;0;0;0;0
08.03.21;23:25:00;1;640;10367;0;2;0;27111;0;0;0;0;3;0;17783;0;0;0;0;4;0;26742;0;0;0;0;5;0;0;0;0;0;0;0;0;6;0;49093;0;0;0;0;0;0;7;0;40396;0;0;0;0;8;0;39984;0;0;0;0;9;0;21720;0;0;0;0
08.03.21;23:20:00;1;612;10315;0;2;0;27111;0;0;0;0;3;0;17783;0;0;0;0;4;0;26742;0;0;0;0;5;0;0;0;0;0;0;0;0;6;0;49093;0;0;0;0;0;0;7;0;40396;0;0;0;0;8;0;39984;0;0;0;0;9;0;21720;0;0;0;0
08.03.21;23:15:00;1;631;10263;0;2;0;27111;0;0;0;0;3;0;17783;0;0;0;0;4;0;26742;0;0;0;0;5;0;0;0;0;0;0;0;0;6;0;49093;0;0;0;0;0;0;7;0;40396;0;0;0;0;8;0;39984;0;0;0;0;9;0;21720;0;0;0;0
08.03.21;23:10:00;1;659;10210;0;2;0;27111;0;0;0;0;3;0;17783;0;0;0;0;4;0;26742;0;0;0;0;5;0;0;0;0;0;0;0;0;6;0;49093;0;0;0;0;0;0;7;0;40396;0;0;0;0;8;0;39984;0;0;0;0;9;0;21720;0;0;0;0
08.03.21;23:05:00;1;682;10152;0;2;0;27111;0;0;0;0;3;0;17783;0;0;0;0;4;0;26742;0;0;0;0;5;0;0;0;0;0;0;0;0;6;0;49093;0;0;0;0;0;0;7;0;40396;0;0;0;0;8;0;39984;0;0;0;0;9;0;21720;0;0;0;0
08.03.21;23:00:00;1;634;10096;0;2;0;27111;0;0;0;0;3;0;17783;0;0;0;0;4;0;26742;0;0;0;0;5;0;0;0;0;0;0;0;0;6;0;49093;0;0;0;0;0;0;7;0;40396;0;0;0;0;8;0;39984;0;0;0;0;9;0;21720;0;0;0;0
08.03.21;22:55:00;1;990;10041;0;2;0;27111;0;0;0;0;3;0;17783;0;0;0;0;4;0;26742;0;0;0;0;5;0;0;0;0;0;0;0;0;6;0;49093;2;0;0;0;0;0;7;0;40396;0;0;0;0;8;0;39984;0;0;0;0;9;0;21720;0;0;0;0
08.03.21;22:50:00;1;737;9953;0;2;0;27111;0;0;0;0;3;0;17783;0;0;0;0;4;0;26742;0;0;0;0;5;0;0;0;0;0;0;0;0;6;0;49093;2;0;0;0;0;0;7;0;40396;0;0;0;0;8;0;39984;0;0;0;0;9;0;21720;0;0;0;0
08.03.21;22:45:00;1;787;9891;0;2;0;27111;0;0;0;0;3;0;17783;0;0;0;0;4;0;26742;0;0;0;0;5;0;0;0;0;0;0;0;0;6;0;49093;2;0;0;0;0;0;7;0;40396;0;0;0;0;8;0;39984;0;0;0;0;9;0;21720;0;0;0;0
08.03.21;22:40:00;1;679;9831;0;2;0;27111;0;0;0;0;3;0;17783;0;0;0;0;4;0;26742;0;0;0;0;5;0;0;0;0;0;0;0;0;6;0;49093;2;0;0;0;0;0;7;0;40396;0;0;0;0;8;0;39984;0;0;0;0;9;0;21720;0;0;0;0
08.03.21;22:35:00;1;654;9774;0;2;0;27111;0;0;0;0;3;0;17783;0;0;0;0;4;0;26742;0;0;0;0;5;0;0;0;0;0;0;0;0;6;0;49093;2;0;0;0;0;0;7;0;40396;0;0;0;0;8;0;39984;0;0;0;0;9;0;21720;0;0;0;0
08.03.21;22:30:00;1;663;9721;0;2;0;27111;0;0;0;0;3;0;17783;0;0;0;0;4;0;26742;0;0;0;0;5;0;0;0;0;0;0;0;0;6;0;49093;2;0;0;0;0;0;7;0;40396;0;0;0;0;8;0;39984;0;0;0;0;9;0;21720;0;0;0;0
08.03.21;22:25:00;1;616;9668;0;2;0;27111;0;0;0;0;3;0;17783;0;0;0;0;4;0;26742;0;0;0;0;5;0;0;0;0;0;0;0;0;6;0;49093;2;0;0;0;0;0;7;0;40396;0;0;0;0;8;0;39984;0;0;0;0;9;0;21720;0;0;0;0
08.03.21;22:20:00;1;644;9615;0;2;0;27111;0;0;0;0;3;0;17783;0;0;0;0;4;0;26742;0;0;0;0;5;0;0;0;0;0;0;0;0;6;0;49093;2;0;0;0;0;0;7;0;40396;0;0;0;0;8;0;39984;0;0;0;0;9;0;21720;0;0;0;0
08.03.21;22:15:00;1;666;9562;0;2;0;27111;0;0;0;0;3;0;17783;0;0;0;0;4;0;26742;0;0;0;0;5;0;0;0;0;0;0;0;0;6;0;49093;2;0;0;0;0;0;7;0;40396;0;0;0;0;8;0;39984;0;0;0;0;9;0;21720;0;0;0;0
08.03.21;22:10:00;1;764;9505;0;2;0;27111;0;0;0;0;3;0;17783;0;0;0;0;4;0;26742;0;0;0;0;5;0;0;0;0;0;0;0;0;6;0;49093;2;0;0;0;0;0;7;0;40396;0;0;0;0;8;0;39984;0;0;0;0;9;0;21720;0;0;0;0
08.03.21;22:05:00;1;990;9408;0;2;0;27111;0;0;0;0;3;0;17783;0;0;0;0;4;0;26742;0;0;0;0;5;0;0;0;0;0;0;0;0;6;0;49093;2;0;0;0;0;0;7;0;40396;0;0;0;0;8;0;39984;0;0;0;0;9;0;21720;0;0;0;0
08.03.21;22:00:00;1;741;9338;0;2;0;27111;0;0;0;0;3;0;17783;0;0;0;0;4;0;26742;0;0;0;0;5;0;0;0;0;0;0;0;0;6;0;49093;2;0;0;0;0;0;7;0;40396;0;0;0;0;8;0;39984;0;0;0;0;9;0;21720;0;0;0;0
08.03.21;21:55:00;1;698;9275;0;2;0;27111;0;0;0;0;3;0;17783;0;0;0;0;4;0;26742;0;0;0;0;5;0;0;0;0;0;0;0;0;6;0;49093;2;0;0;0;0;0;7;0;40396;0;0;0;0;8;0;39984;0;0;0;0;9;0;21720;0;0;0;0
08.03.21;21:50:00;1;753;9218;0;2;0;27111;0;0;0;0;3;0;17783;0;0;0;0;4;0;26742;0;0;0;0;5;0;0;0;0;0;0;0;0;6;0;49093;2;0;0;0;0;0;7;0;40396;0;0;0;0;8;0;39984;0;0;0;0;9;0;21720;0;0;0;0
08.03.21;21:45:00;1;734;9155;0;2;0;27111;0;0;0;0;3;0;17783;0;0;0;0;4;0;26742;0;0;0;0;5;0;0;0;0;0;0;0;0;6;0;49093;2;0;0;0;0;0;7;0;40396;0;0;0;0;8;0;39984;0;0;0;0;9;0;21720;0;0;0;0
08.03.21;21:40:00;1;750;9093;0;2;0;27111;0;0;0;0;3;0;17783;0;0;0;0;4;0;26742;0;0;0;0;5;0;0;0;0;0;0;0;0;6;0;49093;2;0;0;0;0;0;7;0;40396;0;0;0;0;8;0;39984;0;0;0;0;9;0;21720;0;0;0;0
08.03.21;21:35:00;1;678;9030;0;2;0;27111;0;0;0;0;3;0;17783;0;0;0;0;4;0;26742;0;0;0;0;5;0;0;0;0;0;0;0;0;6;0;49093;2;0;0;0;0;0;7;0;40396;0;0;0;0;8;0;39984;0;0;0;0;9;0;21720;0;0;0;0
08.03.21;21:30:00;1;656;8974;0;2;0;27111;0;0;0;0;3;0;17783;0;0;0;0;4;0;26742;0;0;0;0;5;0;0;0;0;0;0;0;0;6;0;49093;2;0;0;0;0;0;7;0;40396;0;0;0;0;8;0;39984;0;0;0;0;9;0;21720;0;0;0;0
08.03.21;21:25:00;1;903;8920;0;2;0;27111;0;0;0;0;3;0;17783;0;0;0;0;4;0;26742;0;0;0;0;5;0;0;0;0;0;0;0;0;6;0;49093;2;0;0;0;0;0;7;0;40396;0;0;0;0;8;0;39984;0;0;0;0;9;0;21720;0;0;0;0
08.03.21;21:20:00;1;1540;8829;0;2;0;27111;0;0;0;0;3;0;17783;0;0;0;0;4;0;26742;0;0;0;0;5;0;0;0;0;0;0;0;0;6;0;49093;2;0;0;0;0;0;7;0;40396;0;0;0;0;8;0;39984;0;0;0;0;9;0;21720;0;0;0;0
08.03.21;21:15:00;1;1433;8676;0;2;0;27111;0;0;0;0;3;0;17783;0;0;0;0;4;0;26742;0;0;0;0;5;0;0;0;0;0;0;0;0;6;0;49093;2;0;0;0;0;0;7;0;40396;0;0;0;0;8;0;39984;0;0;0;0;9;0;21720;0;0;0;0
08.03.21;21:10:00;1;543;8574;0;2;0;27111;0;0;0;0;3;0;17783;0;0;0;0;4;0;26742;0;0;0;0;5;0;0;0;0;0;0;0;0;6;0;49093;2;0;0;0;0;0;7;0;40396;0;0;0;0;8;0;39984;0;0;0;0;9;0;21720;0;0;0;0
08.03.21;21:05:00;1;508;8527;0;2;0;27111;0;0;0;0;3;0;17783;0;0;0;0;4;0;26742;0;0;0;0;5;0;0;0;0;0;0;0;0;6;0;49093;2;0;0;0;0;0;7;0;40396;0;0;0;0;8;0;39984;0;0;0;0;9;0;21720;0;0;0;0
08.03.21;21:00:00;1;553;8484;0;2;0;27111;0;0;0;0;3;0;17783;0;0;0;0;4;0;26742;0;0;0;0;5;0;0;0;0;0;0;0;0;6;0;49093;2;0;0;0;0;0;7;0;40396;0;0;0;0;8;0;39984;0;0;0;0;9;0;21720;0;0;0;0
08.03.21;20:55:00;1;572;8438;0;2;0;27111;0;0;0;0;3;0;17783;0;0;0;0;4;0;26742;0;0;0;0;5;0;0;0;0;0;0;0;0;6;0;49093;2;0;0;0;0;0;7;0;40396;0;0;0;0;8;0;39984;0;0;0;0;9;0;21720;0;0;0;0
08.03.21;20:50:00;1;576;8391;0;2;0;27111;0;0;0;0;3;0;17783;0;0;0;0;4;0;26742;0;0;0;0;5;0;0;0;0;0;0;0;0;6;0;49093;2;0;0;0;0;0;7;0;40396;0;0;0;0;8;0;39984;0;0;0;0;9;0;21720;0;0;0;0
08.03.21;20:45:00;1;529;8342;0;2;0;27111;0;0;0;0;3;0;17783;0;0;0;0;4;0;26742;0;0;0;0;5;0;0;0;0;0;0;0;0;6;0;49093;2;0;0;0;0;0;7;0;40396;0;0;0;0;8;0;39984;0;0;0;0;9;0;21720;0;0;0;0
08.03.21;20:40:00;1;526;8298;0;2;0;27111;0;0;0;0;3;0;17783;0;0;0;0;4;0;26742;0;0;0;0;5;0;0;0;0;0;0;0;0;6;0;49093;2;0;0;0;0;0;7;0;40396;0;0;0;0;8;0;39984;0;0;0;0;9;0;21720;0;0;0;0
08.03.21;20:35:00;1;547;8253;0;2;0;27111;0;0;0;0;3;0;17783;0;0;0;0;4;0;26742;0;0;0;0;5;0;0;0;0;0;0;0;0;6;0;49093;2;0;0;0;0;0;7;0;40396;0;0;0;0;8;0;39984;0;0;0;0;9;0;21720;0;0;0;0
08.03.21;20:30:00;1;506;8208;0;2;0;27111;0;0;0;0;3;0;17783;0;0;0;0;4;0;26742;0;0;0;0;5;0;0;0;0;0;0;0;0;6;0;49093;2;0;0;0;0;0;7;0;40396;0;0;0;0;8;0;39984;0;0;0;0;9;0;21720;0;0;0;0
08.03.21;20:25:00;1;861;8166;0;2;0;27111;0;0;0;0;3;0;17783;0;0;0;0;4;0;26742;0;0;0;0;5;0;0;0;0;0;0;0;0;6;0;49093;2;0;0;0;0;0;7;0;40396;0;0;0;0;8;0;39984;0;0;0;0;9;0;21720;0;0;0;0
08.03.21;20:20:00;1;549;8093;0;2;0;27111;0;0;0;0;3;0;17783;0;0;0;0;4;0;26742;0;0;0;0;5;0;0;0;0;0;0;0;0;6;0;49093;2;0;0;0;0;0;7;0;40396;0;0;0;0;8;0;39984;0;0;0;0;9;0;21720;0;0;0;0
08.03.21;20:15:00;1;543;8047;0;2;0;27111;0;0;0;0;3;0;17783;0;0;0;0;4;0;26742;0;0;0;0;5;0;0;0;0;0;0;0;0;6;0;49093;2;0;0;0;0;0;7;0;40396;0;0;0;0;8;0;39984;0;0;0;0;9;0;21720;0;0;0;0
08.03.21;20:10:00;1;524;8001;0;2;0;27111;0;0;0;0;3;0;17783;0;0;0;0;4;0;26742;0;0;0;0;5;0;0;0;0;0;0;0;0;6;0;49093;2;0;0;0;0;0;7;0;40396;0;0;0;0;8;0;39984;0;0;0;0;9;0;21720;0;0;0;0
08.03.21;20:05:00;1;620;7951;0;2;0;27111;0;0;0;0;3;0;17783;0;0;0;0;4;0;26742;0;0;0;0;5;0;0;0;0;0;0;0;0;6;0;49093;2;0;0;0;0;0;7;0;40396;0;0;0;0;8;0;39984;0;0;0;0;9;0;21720;0;0;0;0
08.03.21;20:00:00;1;584;7899;0;2;0;27111;0;0;0;0;3;0;17783;0;0;0;0;4;0;26742;0;0;0;0;5;0;0;0;0;0;0;0;0;6;0;49093;2;0;0;0;0;0;7;0;40396;0;0;0;0;8;0;39984;0;0;0;0;9;0;21720;0;0;0;0
08.03.21;19:55:00;1;552;7851;0;2;0;27111;0;0;0;0;3;0;17783;0;0;0;0;4;0;26742;0;0;0;0;5;0;0;0;0;0;0;0;0;6;0;49093;2;0;0;0;0;0;7;0;40396;0;0;0;0;8;0;39984;0;0;0;0;9;0;21720;0;0;0;0
08.03.21;19:50:00;1;490;7806;0;2;0;27111;0;0;0;0;3;0;17783;0;0;0;0;4;0;26742;0;0;0;0;5;0;0;0;0;0;0;0;0;6;0;49093;2;0;0;0;0;0;7;0;40396;0;0;0;0;8;0;39984;0;0;0;0;9;0;21720;0;0;0;0
08.03.21;19:45:00;1;493;7765;0;2;0;27111;0;0;0;0;3;0;17783;0;0;0;0;4;0;26742;0;0;0;0;5;0;0;0;0;0;0;0;0;6;0;49093;2;0;0;0;0;0;7;0;40396;0;0;0;0;8;0;39984;0;0;0;0;9;0;21720;0;0;0;0
08.03.21;19:40:00;1;479;7724;0;2;0;27111;0;0;0;0;3;0;17783;0;0;0;0;4;0;26742;0;0;0;0;5;0;0;0;0;0;0;0;0;6;0;49093;2;0;0;0;0;0;7;0;40396;0;0;0;0;8;0;39984;0;0;0;0;9;0;21720;0;0;0;0
08.03.21;19:35:00;1;842;7683;0;2;0;27111;0;0;0;0;3;0;17783;0;0;0;0;4;0;26742;0;0;0;0;5;0;0;0;0;0;0;0;0;6;0;49093;0;0;0;0;0;0;7;0;40396;0;0;0;0;8;0;39984;0;0;0;0;9;0;21720;0;0;0;0
08.03.21;19:30:00;1;432;7609;0;2;0;27111;0;0;0;0;3;0;17783;0;0;0;0;4;0;26742;0;0;0;0;5;0;0;0;0;0;0;0;0;6;0;49093;2;0;0;0;0;0;7;0;40396;0;0;0;0;8;0;39984;0;0;0;0;9;0;21720;0;0;0;0
08.03.21;19:25:00;1;395;7574;0;2;0;27111;0;0;0;0;3;0;17783;0;0;0;0;4;0;26742;0;0;0;0;5;0;0;0;0;0;0;0;0;6;0;49093;2;0;0;0;0;0;7;0;40396;0;0;0;0;8;0;39984;0;0;0;0;9;0;21720;0;0;0;0
08.03.21;19:20:00;1;453;7540;0;2;0;27111;0;0;0;0;3;0;17783;0;0;0;0;4;0;26742;0;0;0;0;5;0;0;0;0;0;0;0;0;6;0;49093;2;0;0;0;0;0;7;0;40396;0;0;0;0;8;0;39984;0;0;0;0;9;0;21720;0;0;0;0
08.03.21;19:15:00;1;452;7502;0;2;0;27111;0;0;0;0;3;0;17783;0;0;0;0;4;0;26742;0;0;0;0;5;0;0;0;0;0;0;0;0;6;0;49093;2;0;0;0;0;0;7;0;40396;0;0;0;0;8;0;39984;0;0;0;0;9;0;21720;0;0;0;0
08.03.21;19:10:00;1;457;7464;0;2;0;27111;0;0;0;0;3;0;17783;0;0;0;0;4;0;26742;0;0;0;0;5;0;0;0;0;0;0;0;0;6;0;49093;2;0;0;0;0;0;7;0;40396;0;0;0;0;8;0;39984;0;0;0;0;9;0;21720;0;0;0;0
08.03.21;19:05:00;1;472;7425;0;2;0;27111;0;0;0;0;3;0;17783;0;0;0;0;4;0;26742;0;0;0;0;5;0;0;0;0;0;0;0;0;6;0;49093;2;0;0;0;0;0;7;0;40396;0;0;0;0;8;0;39984;0;0;0;0;9;0;21720;0;0;0;0
08.03.21;19:00:00;1;870;7387;0;2;0;27111;0;0;0;0;3;0;17783;0;0;0;0;4;0;26742;0;0;0;0;5;0;0;0;0;0;0;0;0;6;0;49093;2;0;0;0;0;0;7;0;40396;0;0;0;0;8;0;39984;0;0;0;0;9;0;21720;0;0;0;0
08.03.21;18:55:00;1;376;7344;0;2;0;27111;0;0;0;0;3;0;17783;0;0;0;0;4;0;26742;0;0;0;0;5;0;0;0;0;0;0;0;0;6;0;49093;2;0;0;0;0;0;7;0;40396;0;0;0;0;8;0;39984;0;0;0;0;9;0;21720;0;0;0;0
08.03.21;18:50:00;1;361;7312;0;2;0;27111;0;0;0;0;3;0;17783;0;0;0;0;4;0;26742;0;0;0;0;5;0;0;0;0;0;0;0;0;6;0;49093;2;0;0;0;0;0;7;0;40396;0;0;0;0;8;0;39984;0;0;0;0;9;0;21720;0;0;0;0
08.03.21;18:45:00;1;415;7282;0;2;0;27111;0;0;0;0;3;0;17783;0;0;0;0;4;0;26742;0;0;0;0;5;0;0;0;0;0;0;0;0;6;0;49093;2;0;0;0;0;0;7;0;40396;0;0;0;0;8;0;39984;0;0;0;0;9;0;21720;0;0;0;0
08.03.21;18:40:00;1;272;7247;0;2;0;27111;0;0;0;0;3;0;17783;0;0;0;0;4;0;26742;0;0;0;0;5;0;0;0;0;0;0;0;0;6;0;49093;2;0;0;0;0;0;7;0;40396;0;0;0;0;8;0;39984;0;0;0;0;9;0;21720;0;0;0;0
08.03.21;18:35:00;1;314;7224;0;2;0;27111;0;0;0;0;3;0;17783;0;0;0;0;4;0;26742;0;0;0;0;5;0;0;0;0;0;0;0;0;6;0;49093;2;0;0;0;0;0;7;0;40396;0;0;0;0;8;0;39984;0;0;0;0;9;0;21720;0;0;0;0
08.03.21;18:30:00;1;259;7198;0;2;0;27111;0;0;0;0;3;0;17783;0;0;0;0;4;0;26742;0;0;0;0;5;0;0;0;0;0;0;0;0;6;0;49093;2;0;0;0;0;0;7;0;40396;0;0;0;0;8;0;39984;0;0;0;0;9;0;21720;0;0;0;0
08.03.21;18:25:00;1;265;7177;0;2;0;27111;0;0;112;6;3;0;17783;0;0;238;14;4;0;26742;0;0;0;0;5;0;0;0;0;0;0;0;0;6;0;49093;2;0;0;0;0;0;7;0;40396;0;0;0;0;8;0;39984;0;0;0;0;9;0;21720;0;0;0;0
08.03.21;18:20:00;1;309;7154;0;2;0;27111;6;0;307;15;3;0;17783;6;0;355;17;4;0;26742;0;0;45;12;5;0;0;0;0;0;0;0;0;6;0;49093;0;0;0;0;0;0;7;0;40396;0;0;0;0;8;0;39984;0;0;0;0;9;0;21720;0;0;0;0
08.03.21;18:15:00;1;291;7128;0;2;0;27111;6;0;346;16;3;0;17783;6;1;416;18;4;0;26742;1;0;96;18;5;0;0;0;0;0;0;0;0;6;0;49093;2;2;0;86;51;7;7;0;40396;0;0;0;0;8;0;39984;0;0;0;0;9;0;21720;0;0;0;0
08.03.21;18:10:00;1;297;7103;0;2;0;27111;6;0;367;16;3;0;17783;6;1;435;18;4;0;26742;1;0;127;19;5;0;0;0;0;0;0;0;0;6;0;49093;23;3;7;495;180;25;7;0;40396;0;0;228;16;8;0;39984;0;0;230;15;9;0;21720;6;0;284;14
08.03.21;18:05:00;1;412;7078;0;2;0;27111;6;0;393;17;3;2;17783;3;4;457;18;4;0;26742;1;0;183;19;5;0;0;0;0;0;0;0;0;6;0;49093;23;8;3;307;429;26;7;0;40396;6;0;365;20;8;0;39984;6;0;364;19;9;0;21720;6;0;377;14
08.03.21;18:00:00;1;376;7043;0;2;1;27111;6;7;402;17;3;0;17783;6;5;501;19;4;0;26742;3;0;206;20;5;0;0;0;0;0;0;0;0;6;0;49093;23;9;2;388;575;27;7;0;40396;6;2;413;21;8;0;39984;6;1;421;20;9;0;21720;6;1;432;15
08.03.21;17:55:00;1;410;7011;0;2;41;27111;6;69;367;18;3;3;17783;6;8;527;19;4;7;26742;3;8;198;21;5;0;0;0;0;0;0;0;0;6;54;49093;4;21;27;465;360;28;7;1;40396;6;4;470;21;8;4;39984;6;8;449;20;9;0;21720;6;0;523;15
08.03.21;17:50:00;1;313;6978;0;2;107;27108;4;145;382;19;3;33;17783;6;54;533;20;4;46;26741;3;47;197;22;5;0;0;0;0;0;0;0;0;6;87;49089;4;54;53;465;359;28;7;58;40396;4;101;418;22;8;39;39984;6;65;430;21;9;0;21720;3;5;537;15
08.03.21;17:45:00;1;417;6949;0;2;217;27098;4;256;357;20;3;118;17779;4;156;441;20;4;152;26737;5;159;224;22;5;0;0;0;0;0;0;0;0;6;125;49081;4;66;61;465;360;28;7;166;40391;4;209;428;22;8;92;39981;4;138;447;21;9;7;21720;6;10;563;16
08.03.21;17:40:00;1;259;6915;0;2;286;27080;4;328;377;21;3;161;17770;4;199;430;21;4;221;26725;5;230;228;23;5;0;0;0;0;0;0;0;0;6;152;49070;4;79;68;465;360;28;7;258;40377;4;306;470;23;8;145;39973;4;183;439;22;9;30;21720;6;45;526;16
08.03.21;17:35:00;1;303;6894;0;2;426;27056;4;473;354;21;3;250;17756;4;289;416;21;4;341;26706;5;355;235;23;5;0;0;0;0;0;0;0;0;6;198;49057;4;108;97;465;360;28;7;430;40355;4;478;478;23;8;224;39961;4;263;463;22;9;85;21717;4;117;494;17
08.03.21;17:30:00;1;250;6869;0;2;517;27021;4;565;358;22;3;299;17735;4;341;426;22;4;434;26678;5;452;237;24;5;0;0;0;0;0;0;0;0;6;316;49040;4;156;174;497;495;29;7;572;40320;4;614;456;23;8;332;39942;4;375;492;22;9;121;21710;4;156;528;18
08.03.21;17:25:00;1;251;6848;0;2;808;26978;4;865;359;23;3;466;17710;4;516;427;22;4;684;26641;5;712;240;25;5;0;0;0;0;0;0;0;0;6;503;49012;4;240;258;594;564;29;7;894;40272;4;956;466;24;8;621;39914;4;671;488;23;9;197;21700;4;233;535;18
08.03.21;17:20:00;1;252;6827;0;2;1002;26913;4;1069;364;24;3;593;17673;4;647;438;23;4;862;26587;5;898;242;25;5;0;0;0;0;0;0;0;0;6;626;48970;4;322;342;596;569;29;7;1157;40200;4;1232;481;24;8;817;39864;4;874;486;23;9;234;21684;4;272;529;18
08.03.21;17:15:00;1;258;6806;0;2;1057;26829;4;1129;386;25;3;655;17624;4;710;431;23;4;951;26515;5;991;243;26;5;0;0;0;0;0;0;0;0;6;727;48917;4;372;376;600;578;29;7;1293;40103;4;1359;489;25;8;862;39796;4;923;456;24;9;244;21664;4;285;550;19
08.03.21;17:10:00;1;697;6784;0;2;1275;26741;4;1357;398;26;3;786;17570;4;844;429;23;4;1142;26436;5;1190;242;26;5;0;0;0;0;0;0;0;0;6;944;48856;4;458;464;604;576;29;7;1592;39998;4;1678;492;25;8;985;39725;4;1040;363;24;9;320;21644;4;368;556;19
08.03.21;17:05:00;1;1148;6710;0;2;1623;26634;4;1716;382;27;3;954;17504;4;1019;434;24;4;1356;26340;5;1413;239;27;5;0;0;0;0;0;0;0;0;6;1185;48775;4;600;601;605;578;29;7;1944;39863;4;2054;488;25;8;1447;39641;4;1518;376;25;9;389;21617;4;437;513;20
08.03.21;17:00:00;1;1032;6614;0;2;1820;26499;4;1920;393;27;3;1059;17424;4;1128;436;24;4;1575;26227;5;1640;242;27;5;0;0;0;0;0;0;0;0;6;1368;48675;4;681;678;611;579;29;7;2198;39701;4;2309;489;25;8;1828;39521;4;1920;425;25;9;361;21584;4;399;364;20
08.03.21;16:55:00;1;1327;6531;0;2;2109;26346;4;2220;389;28;3;1231;17335;4;1306;436;24;4;1848;26095;5;1925;243;28;5;0;0;0;0;0;0;0;0;6;1666;48558;4;862;842;611;580;29;7;2520;39517;4;2641;484;26;8;2283;39367;4;2390;448;25;9;570;21554;4;612;353;21
08.03.21;16:50:00;1;461;6423;0;2;2369;26170;4;2494;398;29;3;1383;17233;4;1461;435;25;4;2081;25941;5;2168;241;28;5;0;0;0;0;0;0;0;0;6;1947;48417;4;1017;1000;614;584;29;7;2794;39307;4;2929;488;26;8;2633;39177;4;2755;461;25;9;889;21506;4;940;351;21
08.03.21;16:45:00;1;362;6392;0;2;2551;25973;4;2680;391;29;3;1458;17117;4;1542;443;25;4;2190;25768;5;2281;244;28;5;0;0;0;0;0;0;0;0;6;2063;48253;4;1056;1042;621;583;30;7;2933;39073;4;3075;488;26;8;2841;38956;4;2974;479;26;9;1076;21431;4;1133;370;22
08.03.21;16:40:00;1;341;6362;0;2;2618;25760;4;2750;396;28;3;1486;16996;4;1572;441;24;4;2176;25585;5;2267;244;27;5;0;0;0;0;0;0;0;0;6;2107;48081;4;1092;1078;618;587;30;7;3063;38830;4;3212;494;26;8;3029;38722;4;3174;483;25;9;1204;21343;4;1269;390;23
08.03.21;16:35:00;1;345;6333;0;2;2469;25543;4;2596;405;28;3;1304;16873;4;1383;446;24;4;1900;25405;5;1979;245;27;5;0;0;0;0;0;0;0;0;6;1945;47909;4;1004;993;611;584;30;7;3068;38574;4;3218;490;26;8;3052;38468;4;3196;488;26;9;1305;21242;4;1376;426;23
08.03.21;16:30:00;1;292;6305;0;2;2323;25339;4;2445;401;27;3;1264;16764;4;1343;459;24;4;1871;25247;5;1949;247;27;5;0;0;0;0;0;0;0;0;6;2009;47752;4;1055;1047;601;585;30;7;2775;38321;4;2908;487;26;8;2832;38218;4;2970;490;26;9;1247;21136;4;1327;480;23
08.03.21;16:25:00;1;292;6280;0;2;1919;25157;4;2027;406;27;3;1061;16665;4;1131;455;24;4;1522;25101;5;1585;243;27;5;0;0;0;0;0;0;0;0;6;1727;47594;4;894;864;606;581;30;7;2893;38106;4;3032;484;26;8;2852;37997;4;2994;488;26;9;1348;21037;4;1429;491;24
08.03.21;16:20:00;1;294;6256;0;2;2622;24986;4;2762;406;27;3;1388;16571;4;1466;445;25;4;2011;24966;5;2095;243;27;5;0;0;0;0;0;0;0;0;6;2288;47436;4;1194;1159;615;590;30;7;2977;37860;4;3126;493;26;8;3011;37758;4;3155;483;26;9;1566;20928;4;1661;510;24
08.03.21;16:15:00;1;328;6231;0;2;1875;24767;4;1979;409;26;3;802;16456;4;871;536;24;4;1423;24799;5;1482;248;27;5;0;0;0;0;0;0;0;0;6;1753;47244;4;890;866;608;584;30;7;1836;37621;4;1935;474;26;8;1832;37516;4;1925;476;26;9;995;20802;4;1069;526;23
08.03.21;16:10:00;1;336;6204;0;2;1731;24610;4;1830;409;26;3;741;16389;4;805;542;25;4;1315;24680;5;1370;238;27;5;0;0;0;0;0;0;0;0;6;1713;47104;4;874;856;610;589;30;7;2883;37466;4;3020;483;26;8;2892;37360;4;3031;484;26;9;1550;20717;4;1647;525;24
08.03.21;16:05:00;1;399;6175;0;2;910;24466;4;976;402;26;3;513;16327;4;570;510;25;4;719;24571;5;748;241;28;5;0;0;0;0;0;0;0;0;6;1031;46952;4;531;522;600;571;31;7;1374;37231;4;1460;476;27;8;1403;37125;4;1479;469;27;9;781;20591;4;848;540;23
08.03.21;16:00:00;1;313;6142;0;2;651;24389;4;711;404;27;3;409;16284;4;462;507;25;4;528;24509;5;550;238;29;5;0;0;0;0;0;0;0;0;6;854;46873;4;452;450;590;567;31;7;773;37113;4;829;465;27;8;770;37006;4;823;475;27;9;396;20524;4;447;528;24
08.03.21;15:55:00;1;304;6116;0;2;922;24334;4;992;404;28;3;559;16250;4;617;515;26;4;735;24465;5;765;243;29;5;0;0;0;0;0;0;0;0;6;1134;46800;4;596;601;605;579;31;7;1328;37048;4;1407;472;28;8;1274;36941;4;1351;480;28;9;619;20491;4;678;531;25
08.03.21;15:50:00;1;348;6090;0;2;810;24258;4;877;410;30;3;516;16203;4;575;514;27;4;664;24404;5;691;238;30;5;0;0;0;0;0;0;0;0;6;1067;46706;4;556;550;600;567;32;7;999;36939;4;1064;474;29;8;998;36836;4;1055;468;29;9;527;20440;4;579;529;25
08.03.21;15:45:00;1;319;6061;0;2;876;24190;4;945;405;32;3;556;16160;4;613;511;27;4;733;24349;5;763;238;32;5;0;0;0;0;0;0;0;0;6;1211;46616;4;609;610;596;570;32;7;1036;36856;4;1107;470;30;8;1029;36753;4;1092;463;29;9;544;20396;4;599;522;27
08.03.21;15:40:00;1;299;6035;0;2;1096;24118;4;1176;401;34;3;672;16114;4;733;479;28;4;929;24288;5;967;234;33;5;0;0;0;0;0;0;0;0;6;1514;46515;4;783;783;591;572;32;7;1412;36770;4;1493;468;30;8;1407;36668;4;1484;468;30;9;758;20351;4;822;522;28
08.03.21;15:35:00;1;416;6008;0;2;3168;24025;4;3337;405;36;3;1819;16058;4;1915;445;30;4;2509;24210;5;2613;241;34;5;0;0;0;0;0;0;0;0;6;3496;46378;4;1826;1735;612;592;33;7;4293;36653;4;4508;471;31;8;4236;36551;4;4447;480;31;9;2344;20288;4;2481;516;30
08.03.21;15:30:00;1;381;5974;0;2;3127;23769;4;3305;421;35;3;1811;15913;4;1914;499;29;4;2497;24007;5;2601;244;34;5;0;0;0;0;0;0;0;0;6;3465;46070;4;1807;1710;613;588;33;7;5124;36303;4;5371;473;31;8;5140;36207;4;5386;480;31;9;2845;20098;4;3007;533;29
08.03.21;15:25:00;1;385;5942;0;2;1642;23522;4;1743;410;35;3;1052;15768;4;1130;526;30;4;1371;23809;5;1427;243;35;5;0;0;0;0;0;0;0;0;6;2065;45807;4;1071;1039;607;583;33;7;2644;35886;4;2780;480;31;8;2757;35787;4;2896;476;31;9;1515;19865;4;1613;533;28
08.03.21;15:20:00;1;342;5910;0;2;1434;23386;4;1530;412;37;3;937;15681;4;1011;524;30;4;1230;23695;5;1281;240;36;5;0;0;0;0;0;0;0;0;6;1928;45636;4;981;967;607;579;34;7;1921;35654;4;2026;478;32;8;2036;35544;4;2143;472;31;9;1169;19733;4;1252;524;28
08.03.21;15:15:00;1;344;5881;0;2;1387;23267;4;1484;411;39;3;897;15603;4;972;517;31;4;1191;23593;5;1241;236;37;5;0;0;0;0;0;0;0;0;6;1910;45477;4;963;965;600;575;34;7;1484;35499;4;1573;476;33;8;1481;35381;4;1568;476;33;9;801;19641;4;868;520;29
08.03.21;15:10:00;1;789;5853;0;2;2272;23152;4;2410;399;41;3;1238;15529;4;1324;533;33;4;1968;23494;5;2050;235;39;5;0;0;0;0;0;0;0;0;6;2970;45317;4;1527;1504;597;570;35;7;2780;35375;4;2924;465;34;8;2682;35257;4;2814;465;33;9;1250;19574;4;1340;505;31
08.03.21;15:05:00;1;352;5795;0;2;3398;22971;4;3593;393;45;3;1975;15429;4;2081;465;34;4;3007;23338;5;3132;234;40;5;0;0;0;0;0;0;0;0;6;4299;45068;4;2212;2150;595;579;35;7;2791;35148;4;2935;461;34;8;2801;35038;4;2948;455;34;9;1591;19472;4;1696;509;32
08.03.21;15:00:00;1;317;5766;0;2;4205;22713;4;4443;398;45;3;2445;15278;4;2567;451;34;4;3731;23110;5;3886;238;41;5;0;0;0;0;0;0;0;0;6;5220;44718;4;2715;2638;593;569;35;7;4484;34929;4;4708;447;35;8;4579;34819;4;4804;467;34;9;2559;19346;4;2712;518;32
08.03.21;14:55:00;1;319;5739;0;2;3501;22379;4;3704;391;47;3;1992;15086;4;2099;438;35;4;2982;22807;5;3106;231;42;5;0;0;0;0;0;0;0;0;6;4084;44344;4;2108;2050;586;559;35;7;3716;34585;4;3907;456;35;8;3966;34466;4;4159;454;35;9;2215;19149;4;2345;513;33
08.03.21;14:50:00;1;863;5713;0;2;4497;22090;4;4750;389;48;3;2657;14922;4;2787;450;36;4;3957;22562;5;4122;231;43;5;0;0;0;0;0;0;0;0;6;5537;43989;4;2898;2772;588;573;35;7;3059;34275;4;3216;436;35;8;3190;34135;4;3348;439;35;9;1765;18965;4;1876;493;33
08.03.21;14:45:00;1;349;5659;0;2;4509;21715;4;4756;387;47;3;2673;14701;4;2808;448;36;4;3939;22232;5;4103;230;43;5;0;0;0;0;0;0;0;0;6;5623;43526;4;2922;2821;589;569;36;7;5587;34032;4;5870;447;36;8;5538;33884;4;5815;449;36;9;3075;18826;4;3254;497;36
08.03.21;14:40:00;1;303;5631;0;2;4434;21340;4;4682;389;47;3;2635;14478;4;2766;452;37;4;3901;21904;5;4063;230;43;5;0;0;0;0;0;0;0;0;6;5602;43059;4;2918;2811;587;566;36;7;5514;33569;4;5796;440;36;8;5489;33424;4;5755;437;36;9;3041;18570;4;3216;496;36
08.03.21;14:35:00;1;469;5605;0;2;4576;20970;4;4831;387;48;3;2812;14257;4;2952;468;37;4;4046;21578;5;4214;229;43;5;0;0;0;0;0;0;0;0;6;5878;42590;4;3039;2939;587;566;36;7;5679;33107;4;5963;443;36;8;5636;32967;4;5924;443;36;9;3123;18318;4;3305;497;36
08.03.21;14:30:00;1;409;5576;0;2;4684;20595;4;4944;386;48;3;3000;14028;4;3152;487;38;4;4150;21247;5;4323;229;43;5;0;0;0;0;0;0;0;0;6;6098;42106;4;3160;3055;583;567;36;7;5801;32643;4;6094;445;37;8;5772;32505;4;6051;445;36;9;3194;18063;4;3377;495;36
08.03.21;14:25:00;1;407;5535;0;2;4597;20199;4;4846;378;47;3;3029;13774;4;3183;487;38;4;4090;20896;5;4260;228;43;5;0;0;0;0;0;0;0;0;6;6062;41591;4;3148;3046;582;563;36;7;5848;32152;4;6142;444;36;8;5819;32015;4;6105;444;36;9;3233;17791;4;3415;492;36